Location: Enikep?du
(16.5133°N, 80.7066°E)
Time: 10:58:01
(UTC+00:00)

SL-08 R/B - Pass Details

Date: 15 May 2026
Orbit: 666 x 729 km, 98.5° (Epoch: 6 June)

Event Time Altitude Azimuth Distance (km) Brightness Sun altitude
Rises 14:53:29 0° 10° (N) 3,073 6.9 -25.3°
Reaches altitude 10° 14:55:45 10° 9° (N) 2,145 6.1 -25.8°
Enters shadow 15:00:07 75° 335° (NNW) 710 3.3 -26.7°
